Location: Falniów
(50.3639°N, 19.9642°E)
Time: 08:33:58
(UTC+00:00)

Meteor 2-10 Rocket - Pass Details

Date: 18 January 2026
Orbit: 733 x 881 km, 81.2° (Epoch: 14 February)

Event Time Altitude Azimuth Distance (km) Brightness Sun altitude
Rises 04:11:01 0° 194° (SSW) 3,185 6.6 -21.9°
Reaches altitude 10° 04:13:18 10° 196° (SSW) 2,280 5.9 -21.5°
Maximum altitude 04:18:26 79° 283° (WNW) 798 3.4 -20.7°
Drops below altitude 10° 04:23:49 10° 10° (N) 2,388 6.1 -19.9°
Sets 04:26:16 0° 12° (NNE) 3,347 6.9 -19.5°
